Tracking 25710 objects as of 6-Jul-2022
HD Live streaming from Space Station
objects crossing your sky now

FENGYUN 1C DEB

Track FENGYUN 1C DEB now!
10-day predictions


NORAD ID: 29807
Int'l Code: 1999-025CZ
Perigee: 818.6 km
Apogee: 934.8 km
Inclination: 98.8 °
Period: 102.3 minutes
Semi major axis: 7247 km
RCS: 0.0767 m2 (small)
Launch date: May 10, 1999
Source: People's Republic of China (PRC)
Launch site: Taiyaun Space Center, China (TSC)

Note: This is SATELLITE DEBRIS
aabbcc
Your satellite tracking list
Your tracking list is empty




NASA's NSSDC Master Catalog

Two Line Element Set (TLE):
1 29807U 99025CZ  22186.54450520  .00000088  00000-0  76834-4 0  9993
2 29807  98.8088 210.5442 0080145 271.5927  87.6062 14.07024899794203
Source of the keplerian elements: AFSPC